RH
63 64 63 60 57 60 62 63 63 64 55 44 50 55 64 67 67 61 52 53 50 41 41 41 44 68 61 56 55 78 88 81 73 78 88 94 94 87
58 61 60 59 58 59 63 67 63 63 66 44 48 51 59 64 63 57 49 53 48 49 45 46 47 52 61 72 70 79 78 80 79 91 90 91 96 98
54 56 58 58 57 58 59 65 64 64 67 61 53 50 57 59 61 55 55 56 55 53 53 49 57 65 73 74 71 68 68 78 72 85 96 95 96 98
48 50 53 54 54 58 58 58 63 63 62 64 59 53 52 55 55 56 57 55 51 52 54 48 54 62 69 80 77 64 66 64 51 49 50 63 75 86
44 46 47 48 51 53 57 58 57 58 58 60 61 58 53 57 59 58 56 56 54 54 52 39 41 54 72 76 68 64 64 51 50 49 48 48 46 42
44 45 47 49 49 49 50 54 58 58 57 59 60 59 56 55 58 63 59 50 54 47 49 41 58 47 52 54 55 66 66 62 52 33 33 40 46 51
48 46 47 51 52 51 52 51 51 50 53 54 55 57 57 58 61 62 58 53 49 52 55 65 56 56 50 36 30 39 42 32 25 24 25 29 43 50
56 54 49 45 45 48 49 49 51 49 50 55 55 56 54 54 57 59 56 61 64 46 59 61 59 58 52 50 51 44 28 26 25 23 27 45 59 66
76 74 71 60 53 51 54 57 57 54 50 54 55 55 55 52 52 61 63 64 60 56 57 58 49 53 56 54 48 32 24 24 23 24 28 41 50 58
85 83 83 85 79 71 67 66 64 60 61 72 76 66 56 58 56 59 68 68 63 60 67 68 50 48 52 51 50 40 30 25 29 48 58 58 62 64
72 80 83 87 85 82 77 84 82 76 68 61 56 59 80 82 73 73 74 73 78 70 70 76 65 62 60 51 51 51 34 32 64 70 68 67 52 46
57 78 76 89 89 90 96 100 98 94 85 76 71 65 54 48 86 86 83 88 82 74 66 81 74 67 73 60 40 48 43 47 69 61 54 50 42 39
57 59 57 52 58 71 79 87 91 97 100 95 99 76 68 69 66 63 70 85 91 82 70 73 79 79 71 73 65 41 36 65 83 74 72 71 62 62
64 59 61 65 66 69 81 76 70 77 89 94 100 86 75 72 72 81 94 93 88 87 81 79 80 87 84 79 76 70 68 63 66 66 59 57 71 80
63 62 68 61 61 64 75 79 75 74 69 93 99 100 96 72 73 78 86 84 82 88 95 99 97 85 84 93 83 76 80 82 84 84 83 87 82 84
62 65 69 70 73 74 79 82 71 71 68 69 82 86 87 99 97 82 94 100 100 99 90 85 90 99 100 98 93 86 83 84 79 87 91 93 88 81
71 74 75 73 72 72 73 73 73 72 69 66 76 94 94 99 99 90 88 99 99 97 98 92 92 96 97 100 97 94 93 90 88 89 88 90 86 82
74 76 74 72 72 72 74 76 73 74 74 70 75 88 97 100 95 98 99 100 98 96 96 94 98 100 100 98 98 99 99 96 94 88 86 92 91 84
76 76 77 77 75 76 77 77 79 79 76 82 95 100 97 100 99 99 99 100 99 95 90 87 95 99 96 94 76 88 99 97 96 91 93 95 92 83
76 75 76 74 73 75 78 80 84 83 82 82 86 99 99 100 100 99 99 98 96 92 91 89 98 97 95 89 84 75 80 87 99 95 91 86 82 82
80 78 78 80 82 85 87 89 94 94 91 92 94 93 97 100 99 99 99 98 93 96 97 96 89 77 75 78 91 90 87 86 93 87 81 84 89 88
83 86 89 91 87 91 92 93 89 90 95 97 97 91 99 99 98 95 97 97 93 92 94 94 94 93 98 99 89 87 83 80 79 79 78 78 86 89
86 95 96 96 97 95 93 90 95 97 92 85 94 96 95 97 95 96 96 96 97 98 97 96 94 94 98 98 89 91 89 86 84 87 86 83 84 86
Wind_Speed
9 10 10 11 10 10 10 10 8 3 5 2 4 8 10 9 9 13 10 13 13 11 10 9 8 7 7 6 5 6 5 6 6 4 3 4 4 4
11 11 12 12 12 12 12 12 12 11 5 7 5 9 8 10 10 15 15 15 16 13 11 9 8 8 7 6 5 6 5 6 6 4 4 5 4 3
13 14 14 14 15 14 14 14 15 14 11 17 16 14 12 14 15 14 11 12 11 12 13 11 9 9 8 8 8 7 7 7 5 3 3 4 5 5
15 15 17 15 17 17 17 17 17 17 17 16 16 16 15 12 14 15 15 12 12 11 14 12 11 10 10 10 9 8 7 4 3 4 3 4 5 5
17 17 18 17 18 17 17 18 17 18 18 18 19 16 16 13 14 14 14 14 12 12 14 12 13 13 12 12 11 10 9 7 7 8 8 7 8 7
19 19 19 19 19 19 19 20 19 19 18 18 18 17 16 15 14 13 13 13 11 10 11 10 10 11 12 11 11 11 10 10 11 10 9 9 8 8
20 21 21 23 23 23 19 18 19 19 18 18 17 16 15 15 14 13 16 12 11 12 11 10 7 6 6 8 10 10 10 9 8 9 9 9 8 7
21 21 21 22 24 26 27 30 30 20 19 19 18 17 18 18 18 17 14 11 4 13 11 13 14 12 9 10 9 10 8 10 11 10 9 7 7 6
24 23 23 21 20 24 24 24 25 27 31 28 22 21 21 19 17 16 18 16 14 6 7 10 12 13 10 11 13 12 12 12 12 10 9 8 7 8
19 22 23 25 24 23 21 20 20 21 23 26 30 32 27 21 19 18 18 17 15 12 8 4 8 10 8 10 12 11 11 12 10 6 4 4 4 4
17 16 19 20 21 22 21 22 23 23 21 24 29 28 23 26 23 14 14 13 9 14 14 9 10 8 12 13 10 11 10 8 8 8 6 5 4 7
19 18 20 20 21 21 22 19 21 23 22 22 21 23 24 33 28 27 19 16 12 7 17 16 11 6 4 6 9 10 7 8 11 11 11 11 12 18
20 19 20 19 20 20 19 20 23 22 22 22 19 20 21 21 24 27 28 24 19 16 9 21 10 11 7 3 7 10 10 10 12 13 12 14 14 13
21 22 22 22 23 24 22 23 24 22 19 19 19 20 20 20 20 21 21 23 23 23 17 18 14 17 11 5 6 9 14 15 17 20 21 19 16 14
21 23 26 27 28 27 27 28 29 26 21 15 19 21 22 22 19 16 17 20 23 23 20 19 18 20 20 14 10 12 11 13 16 18 19 16 19 18
21 21 22 24 26 27 27 26 24 24 23 21 19 22 23 17 17 18 17 17 17 19 21 22 24 25 21 23 21 20 18 13 6 12 16 15 17 20
26 26 24 23 23 22 22 23 24 24 22 23 22 22 19 21 18 20 22 17 16 15 14 18 20 20 24 24 21 21 19 20 22 22 22 24 24 22
26 23 23 22 21 20 20 20 20 20 22 23 21 19 18 23 22 22 21 18 16 15 16 17 19 16 15 19 23 22 21 21 20 23 23 23 26 24
23 21 21 20 19 18 18 18 18 18 19 19 20 18 18 19 18 17 19 18 17 16 16 16 16 17 7 9 11 20 21 21 21 22 24 24 25 27
20 19 18 17 19 18 17 17 16 16 17 18 19 20 19 18 18 19 20 19 16 15 15 14 15 16 15 9 8 12 19 23 19 20 21 23 29 30
16 17 17 18 18 18 17 16 15 16 17 17 17 19 19 21 22 18 17 16 16 15 13 15 21 21 23 21 15 19 20 20 25 26 22 22 22 22
19 18 18 17 18 17 16 16 17 16 15 15 16 17 19 18 17 15 15 13 15 16 15 13 14 18 19 17 17 19 18 18 21 23 26 29 20 7
17 17 17 17 17 17 18 18 17 16 17 18 17 16 16 16 16 16 15 16 16 14 14 12 13 16 19 18 20 19 18 18 20 23 28 29 32 38
Wind_Direction
267 269 266 269 269 265 266 267 279 303 316 193 229 243 247 265 281 291 302 291 293 290 287 283 266 266 273 279 277 264 263 270 282 290 298 300 286 248
264 261 261 263 265 264 263 264 261 263 272 316 288 267 268 258 270 286 293 281 296 299 289 280 272 263 245 253 260 245 255 267 274 290 269 261 285 308
266 262 262 260 258 257 254 250 254 251 260 274 279 279 271 274 281 282 283 280 281 286 290 279 268 261 255 253 247 252 253 245 250 244 231 246 259 282
265 263 261 259 258 255 257 255 250 252 256 267 273 276 270 272 276 274 274 273 265 265 272 263 260 256 249 244 252 268 254 230 249 266 266 272 265 267
265 264 264 261 259 257 254 257 258 256 256 262 269 269 272 263 273 272 266 268 262 254 263 263 255 246 242 244 251 254 250 256 291 308 297 289 293 279
266 263 262 260 258 257 256 253 253 254 255 255 260 266 265 261 261 266 269 255 253 253 268 252 246 239 243 254 256 253 257 265 277 286 281 277 274 276
277 272 267 263 262 257 258 257 254 252 250 254 256 256 253 252 239 250 249 254 243 243 245 254 228 219 238 240 244 247 256 265 279 283 279 274 272 271
279 277 276 275 271 271 267 259 253 257 256 250 252 250 250 247 246 244 247 240 259 226 222 234 227 232 241 250 240 233 246 262 269 277 271 266 260 263
278 280 279 276 277 274 269 270 269 265 254 253 262 256 259 258 255 233 238 239 231 227 217 250 225 239 246 241 249 256 262 265 271 266 264 259 254 258
286 285 279 274 272 272 277 274 270 263 259 256 251 255 258 265 260 245 237 241 249 243 234 239 232 241 233 239 258 263 265 271 269 251 230 229 238 263
291 292 291 284 279 273 268 273 272 269 265 259 259 257 256 253 252 241 230 227 231 233 232 232 257 239 255 261 248 265 265 244 220 215 217 223 260 298
282 279 289 278 279 279 271 270 268 268 267 264 257 267 268 249 244 236 227 217 217 221 225 203 235 234 287 263 255 243 257 240 227 238 246 263 276 290
285 281 277 280 279 272 266 265 269 285 278 278 260 262 260 248 239 238 231 221 213 227 224 208 214 211 219 254 270 267 259 246 254 261 256 270 282 272
286 285 285 285 284 279 274 271 271 268 278 293 261 249 251 237 227 223 225 228 228 233 228 227 222 205 209 218 242 253 254 260 259 262 271 279 278 268
289 288 290 291 287 284 278 273 272 264 256 253 285 255 243 247 239 234 234 233 235 235 230 223 236 240 237 240 246 233 252 256 258 265 274 273 284 289
293 293 292 291 286 284 280 275 266 260 254 244 255 272 281 281 232 240 236 236 240 248 243 242 239 239 237 243 249 255 252 244 265 260 257 254 263 271
294 292 290 286 283 279 276 274 271 270 263 256 246 250 246 240 236 251 242 228 230 242 237 239 241 247 250 247 249 249 247 249 253 256 260 266 270 268
288 282 282 282 282 284 282 282 280 274 265 264 250 242 247 225 220 218 226 220 226 231 231 226 221 221 230 243 240 242 244 244 248 251 256 256 270 269
280 278 277 281 285 288 287 286 281 278 279 272 251 245 251 245 229 213 208 210 214 224 231 230 217 202 222 242 254 234 231 238 240 244 246 247 257 269
278 277 279 283 286 288 292 291 289 286 280 273 265 252 253 246 231 216 209 206 212 220 223 222 217 224 231 246 259 249 245 247 225 231 241 253 262 272
287 285 283 283 285 287 289 290 290 288 286 281 274 266 254 244 230 215 210 218 224 223 221 214 223 243 247 258 271 265 258 248 247 256 262 259 262 268
279 276 276 276 279 281 281 283 288 288 293 290 279 279 255 235 238 234 228 224 231 235 238 241 235 231 228 225 246 260 265 262 256 256 254 252 245 247
292 289 283 276 278 276 273 274 271 273 281 289 284 277 268 252 247 236 237 237 235 229 224 230 238 240 233 232 248 257 258 264 269 266 262 259 257 260